Wetterdaten: Freitag, 11.12.2015
Datum Zeit Auen-Temp. Temp gefhlt Luftfeuchte Luftdruck Regen Wind Richtung Richtung Taupunkt Windben
11.12.2015 00:00 -4,7 C -5,2 C 83 % 1031,5 hPa 0,0 mm 0,0 km/h (0 Bft) N-NW 337 -7,1 C 0,0 km/h (0 Bft)
11.12.2015 00:05 -4,6 C -5,1 C 84 % 1031,5 hPa 0,0 mm 0,0 km/h (0 Bft) N-NW 337 -6,9 C 0,0 km/h (0 Bft)
11.12.2015 00:10 -4,8 C -5,3 C 84 % 1031,5 hPa 0,0 mm 0,0 km/h (0 Bft) N-NO 22 -7,1 C 0,0 km/h (0 Bft)
11.12.2015 00:11 -4,7 C -5,2 C 84 % 1031,2 hPa 0,0 mm 0,0 km/h (0 Bft) N-NO 22 -7,0 C 0,0 km/h (0 Bft)
11.12.2015 00:16 -4,7 C -5,2 C 84 % 1031,2 hPa 0,0 mm 0,0 km/h (0 Bft) N-NO 22 -7,0 C 0,0 km/h (0 Bft)
11.12.2015 00:20 -4,9 C -5,3 C 84 % 1031,2 hPa 0,0 mm 0,0 km/h (0 Bft) N-NO 22 -7,2 C 0,0 km/h (0 Bft)
11.12.2015 00:25 -5,1 C -5,5 C 84 % 1031,2 hPa 0,0 mm 0,0 km/h (0 Bft) N-NO 22 -7,4 C 0,0 km/h (0 Bft)
11.12.2015 00:30 -5,2 C -5,6 C 84 % 1031,2 hPa 0,0 mm 0,0 km/h (0 Bft) N-NO 22 -7,5 C 0,0 km/h (0 Bft)
11.12.2015 00:35 -5,2 C -5,6 C 84 % 1031,1 hPa 0,0 mm 0,0 km/h (0 Bft) N-NO 22 -7,5 C 0,0 km/h (0 Bft)
11.12.2015 00:40 -5,1 C -5,5 C 84 % 1031,1 hPa 0,0 mm 0,0 km/h (0 Bft) NO 45 -7,4 C 0,0 km/h (0 Bft)
11.12.2015 00:45 -5,2 C -5,6 C 84 % 1031,1 hPa 0,0 mm 0,0 km/h (0 Bft) NO 45 -7,5 C 0,0 km/h (0 Bft)
11.12.2015 00:50 -4,9 C -5,3 C 85 % 1031,1 hPa 0,0 mm 0,0 km/h (0 Bft) NO 45 -7,0 C 0,0 km/h (0 Bft)
11.12.2015 00:55 -5,2 C -5,5 C 85 % 1031,1 hPa 0,0 mm 0,0 km/h (0 Bft) NO 45 -7,3 C 0,0 km/h (0 Bft)
11.12.2015 01:00 -5,2 C -5,6 C 85 % 1031,1 hPa 0,0 mm 0,0 km/h (0 Bft) N-NW 337 -7,3 C 0,0 km/h (0 Bft)
11.12.2015 01:05 -5,2 C -5,6 C 85 % 1031,1 hPa 0,0 mm 0,0 km/h (0 Bft) N-NW 337 -7,3 C 0,0 km/h (0 Bft)
11.12.2015 01:10 -5,4 C -5,8 C 85 % 1031,1 hPa 0,0 mm 0,0 km/h (0 Bft) N-NW 337 -7,5 C 0,0 km/h (0 Bft)
11.12.2015 01:15 -4,9 C -5,4 C 85 % 1031,0 hPa 0,0 mm 0,3 km/h (0 Bft) S 180 -7,0 C 0,0 km/h (0 Bft)
11.12.2015 01:20 -5,0 C -5,4 C 85 % 1031,0 hPa 0,0 mm 0,3 km/h (0 Bft) S 180 -7,1 C 0,0 km/h (0 Bft)
11.12.2015 01:25 -4,7 C -5,2 C 86 % 1031,0 hPa 0,0 mm 0,3 km/h (0 Bft) S 180 -6,7 C 0,0 km/h (0 Bft)
11.12.2015 01:30 -4,5 C -5,0 C 86 % 1031,0 hPa 0,0 mm 0,0 km/h (0 Bft) SO 135 -6,5 C 0,0 km/h (0 Bft)
11.12.2015 01:35 -4,6 C -5,0 C 86 % 1031,0 hPa 0,0 mm 0,0 km/h (0 Bft) SO 135 -6,6 C 0,0 km/h (0 Bft)
11.12.2015 01:40 -4,4 C -4,7 C 81 % 1031,0 hPa 0,0 mm 0,0 km/h (0 Bft) SO 135 -7,2 C 0,0 km/h (0 Bft)
11.12.2015 01:45 -4,0 C -4,0 C 81 % 1031,0 hPa 0,0 mm 0,5 km/h (0 Bft) S-SO 157 -6,8 C 0,0 km/h (0 Bft)
11.12.2015 01:50 -3,2 C -3,8 C 86 % 1031,0 hPa 0,0 mm 0,5 km/h (0 Bft) SO 135 -5,2 C 0,0 km/h (0 Bft)
11.12.2015 01:55 -3,8 C -4,3 C 85 % 1030,9 hPa 0,0 mm 0,3 km/h (0 Bft) SO 135 -5,9 C 0,0 km/h (0 Bft)
11.12.2015 02:00 -4,4 C -4,7 C 84 % 1030,9 hPa 0,0 mm 0,0 km/h (0 Bft) SO 135 -6,7 C 0,0 km/h (0 Bft)
11.12.2015 02:05 -4,0 C -4,5 C 85 % 1030,9 hPa 0,0 mm 0,3 km/h (0 Bft) O-SO 112 -6,1 C 2,6 km/h (1 Bft)
11.12.2015 02:10 -4,3 C -4,7 C 84 % 1030,9 hPa 0,0 mm 0,3 km/h (0 Bft) O-SO 112 -6,6 C 0,0 km/h (0 Bft)
11.12.2015 02:15 -4,7 C -5,0 C 84 % 1030,9 hPa 0,0 mm 0,3 km/h (0 Bft) O-SO 112 -7,0 C 0,0 km/h (0 Bft)
11.12.2015 02:20 -4,5 C -5,0 C 84 % 1030,9 hPa 0,0 mm 0,0 km/h (0 Bft) O-SO 112 -6,8 C 0,0 km/h (0 Bft)
11.12.2015 02:25 -4,7 C -5,1 C 84 % 1030,9 hPa 0,0 mm 0,0 km/h (0 Bft) O-SO 112 -7,0 C 0,0 km/h (0 Bft)
11.12.2015 02:30 -4,5 C -5,0 C 84 % 1030,9 hPa 0,0 mm 0,0 km/h (0 Bft) O-SO 112 -6,8 C 0,0 km/h (0 Bft)
11.12.2015 02:35 -4,3 C -4,9 C 85 % 1031,0 hPa 0,0 mm 0,0 km/h (0 Bft) O-SO 112 -6,4 C 0,0 km/h (0 Bft)
11.12.2015 02:40 -4,5 C -5,0 C 84 % 1031,0 hPa 0,0 mm 0,0 km/h (0 Bft) O-SO 112 -6,8 C 0,0 km/h (0 Bft)
11.12.2015 02:45 -4,7 C -5,2 C 84 % 1031,0 hPa 0,0 mm 0,0 km/h (0 Bft) O-SO 112 -7,0 C 0,0 km/h (0 Bft)
11.12.2015 02:50 -4,4 C -5,0 C 85 % 1031,0 hPa 0,0 mm 0,0 km/h (0 Bft) O-SO 112 -6,5 C 0,0 km/h (0 Bft)
11.12.2015 02:55 -4,6 C -5,1 C 85 % 1030,8 hPa 0,0 mm 0,0 km/h (0 Bft) O-SO 112 -6,7 C 0,0 km/h (0 Bft)
11.12.2015 03:00 -4,7 C -5,2 C 85 % 1030,8 hPa 0,0 mm 0,0 km/h (0 Bft) O-SO 112 -6,8 C 0,0 km/h (0 Bft)
11.12.2015 03:05 -4,7 C -5,2 C 85 % 1030,8 hPa 0,0 mm 0,0 km/h (0 Bft) O-SO 112 -6,8 C 0,0 km/h (0 Bft)
11.12.2015 03:10 -4,0 C -4,8 C 85 % 1030,8 hPa 0,0 mm 0,0 km/h (0 Bft) S-SO 157 -6,1 C 2,6 km/h (1 Bft)
11.12.2015 03:15 -3,6 C -4,4 C 85 % 1030,7 hPa 0,0 mm 0,0 km/h (0 Bft) S-SO 157 -5,7 C 0,0 km/h (0 Bft)
11.12.2015 03:20 -4,5 C -5,0 C 84 % 1030,7 hPa 0,0 mm 0,3 km/h (0 Bft) O 90 -6,8 C 0,0 km/h (0 Bft)
11.12.2015 03:25 -4,8 C -5,2 C 84 % 1030,7 hPa 0,0 mm 0,3 km/h (0 Bft) O-NO 67 -7,1 C 0,0 km/h (0 Bft)
11.12.2015 03:30 -4,5 C -5,1 C 83 % 1030,7 hPa 0,0 mm 0,3 km/h (0 Bft) S-SO 157 -6,9 C 0,0 km/h (0 Bft)
11.12.2015 03:35 -4,5 C -5,0 C 83 % 1030,7 hPa 0,0 mm 0,3 km/h (0 Bft) SO 135 -6,9 C 0,0 km/h (0 Bft)
11.12.2015 03:40 -4,4 C -4,9 C 83 % 1030,7 hPa 0,0 mm 0,3 km/h (0 Bft) S-SO 157 -6,8 C 2,8 km/h (1 Bft)
11.12.2015 03:45 -4,1 C -4,5 C 79 % 1030,7 hPa 0,0 mm 0,5 km/h (0 Bft) S-SO 157 -7,2 C 0,0 km/h (0 Bft)
11.12.2015 03:50 -4,0 C -4,6 C 83 % 1030,7 hPa 0,0 mm 0,5 km/h (0 Bft) SW 225 -6,4 C 2,6 km/h (1 Bft)
11.12.2015 03:55 -4,3 C -4,8 C 83 % 1030,5 hPa 0,0 mm 0,3 km/h (0 Bft) SW 225 -6,7 C 0,0 km/h (0 Bft)
11.12.2015 04:00 -4,7 C -5,1 C 82 % 1030,5 hPa 0,0 mm 0,5 km/h (0 Bft) O-SO 112 -7,3 C 0,0 km/h (0 Bft)
11.12.2015 04:05 -4,7 C -5,1 C 82 % 1030,5 hPa 0,0 mm 0,5 km/h (0 Bft) O-SO 112 -7,3 C 0,0 km/h (0 Bft)
11.12.2015 04:10 -4,7 C -5,2 C 82 % 1030,5 hPa 0,0 mm 0,3 km/h (0 Bft) O-SO 112 -7,3 C 0,0 km/h (0 Bft)
11.12.2015 04:15 -4,6 C -5,1 C 82 % 1030,3 hPa 0,0 mm 0,3 km/h (0 Bft) O-SO 112 -7,2 C 0,0 km/h (0 Bft)
11.12.2015 04:20 -4,7 C -5,2 C 82 % 1030,3 hPa 0,0 mm 0,0 km/h (0 Bft) O-SO 112 -7,3 C 0,0 km/h (0 Bft)
11.12.2015 04:25 -5,0 C -5,4 C 82 % 1030,3 hPa 0,0 mm 0,0 km/h (0 Bft) O-SO 112 -7,6 C 0,0 km/h (0 Bft)
11.12.2015 04:30 -4,9 C -5,4 C 82 % 1030,3 hPa 0,0 mm 0,0 km/h (0 Bft) O-SO 112 -7,5 C 0,0 km/h (0 Bft)
11.12.2015 04:35 -4,8 C -5,3 C 82 % 1030,3 hPa 0,0 mm 0,0 km/h (0 Bft) O-SO 112 -7,4 C 0,0 km/h (0 Bft)
11.12.2015 04:40 -5,0 C -5,5 C 82 % 1030,3 hPa 0,0 mm 0,0 km/h (0 Bft) O-SO 112 -7,6 C 0,0 km/h (0 Bft)
11.12.2015 04:45 -4,9 C -5,5 C 82 % 1030,3 hPa 0,0 mm 0,0 km/h (0 Bft) O 90 -7,5 C 0,0 km/h (0 Bft)
11.12.2015 04:50 -5,0 C -5,5 C 82 % 1030,3 hPa 0,0 mm 0,3 km/h (0 Bft) O 90 -7,6 C 0,0 km/h (0 Bft)
11.12.2015 04:55 -4,8 C -5,3 C 83 % 1030,0 hPa 0,0 mm 0,3 km/h (0 Bft) O-NO 67 -7,2 C 0,0 km/h (0 Bft)
11.12.2015 05:00 -4,5 C -5,0 C 79 % 1030,0 hPa 0,0 mm 0,3 km/h (0 Bft) S 180 -7,6 C 0,0 km/h (0 Bft)
11.12.2015 05:05 -4,5 C -4,8 C 79 % 1030,0 hPa 0,0 mm 1,0 km/h (0 Bft) O-SO 112 -7,6 C 0,0 km/h (0 Bft)
11.12.2015 05:10 -4,5 C -4,9 C 82 % 1030,0 hPa 0,0 mm 1,3 km/h (1 Bft) NW 315 -7,1 C 4,7 km/h (1 Bft)
11.12.2015 05:15 -4,5 C -4,9 C 82 % 1030,0 hPa 0,0 mm 0,5 km/h (0 Bft) O-SO 112 -7,1 C 0,0 km/h (0 Bft)
11.12.2015 05:20 -4,7 C -5,0 C 79 % 1030,0 hPa 0,0 mm 0,5 km/h (0 Bft) O-SO 112 -7,8 C 2,6 km/h (1 Bft)
11.12.2015 05:25 -4,5 C -5,0 C 81 % 1030,0 hPa 0,0 mm 0,3 km/h (0 Bft) O-NO 67 -7,3 C 0,0 km/h (0 Bft)
11.12.2015 05:30 -4,9 C -5,3 C 81 % 1030,0 hPa 0,0 mm 0,0 km/h (0 Bft) NO 45 -7,6 C 0,0 km/h (0 Bft)
11.12.2015 05:35 -5,0 C -5,4 C 81 % 1030,0 hPa 0,0 mm 0,0 km/h (0 Bft) NO 45 -7,7 C 0,0 km/h (0 Bft)
11.12.2015 05:40 -4,4 C -4,8 C 79 % 1030,0 hPa 0,0 mm 0,5 km/h (0 Bft) SO 135 -7,5 C 2,8 km/h (1 Bft)
11.12.2015 05:45 -3,9 C -4,3 C 79 % 1030,0 hPa 0,0 mm 1,0 km/h (0 Bft) SO 135 -7,0 C 6,0 km/h (2 Bft)
11.12.2015 05:50 -3,8 C -4,4 C 79 % 1030,0 hPa 0,0 mm 0,8 km/h (0 Bft) S-SO 157 -6,9 C 0,0 km/h (0 Bft)
11.12.2015 05:55 -4,3 C -4,7 C 79 % 1030,0 hPa 0,0 mm 0,5 km/h (0 Bft) O-SO 112 -7,4 C 0,0 km/h (0 Bft)
11.12.2015 06:00 -4,4 C -4,9 C 78 % 1030,0 hPa 0,0 mm 0,0 km/h (0 Bft) N-NO 22 -7,6 C 0,0 km/h (0 Bft)
11.12.2015 06:05 -4,4 C -4,9 C 78 % 1030,0 hPa 0,0 mm 0,3 km/h (0 Bft) NO 45 -7,6 C 2,6 km/h (1 Bft)
11.12.2015 06:10 -4,5 C -5,0 C 79 % 1030,0 hPa 0,0 mm 0,3 km/h (0 Bft) W-NW 292 -7,6 C 0,0 km/h (0 Bft)
11.12.2015 06:15 -4,2 C -4,8 C 79 % 1030,0 hPa 0,0 mm 0,3 km/h (0 Bft) N 360 -7,3 C 0,0 km/h (0 Bft)
11.12.2015 06:16 -4,2 C -4,8 C 79 % 1030,0 hPa 0,0 mm 0,3 km/h (0 Bft) N 360 -7,3 C 0,0 km/h (0 Bft)
11.12.2015 06:20 -4,0 C -4,7 C 79 % 1030,0 hPa 0,0 mm 0,3 km/h (0 Bft) O-NO 67 -7,1 C 3,4 km/h (1 Bft)
11.12.2015 06:25 -4,3 C -4,9 C 79 % 1030,0 hPa 0,0 mm 0,3 km/h (0 Bft) NO 45 -7,4 C 0,0 km/h (0 Bft)
11.12.2015 06:30 -4,5 C -5,1 C 79 % 1030,0 hPa 0,0 mm 0,0 km/h (0 Bft) O-NO 67 -7,6 C 0,0 km/h (0 Bft)
11.12.2015 06:35 -4,0 C -4,7 C 79 % 1030,2 hPa 0,0 mm 0,0 km/h (0 Bft) NO 45 -7,1 C 0,0 km/h (0 Bft)
11.12.2015 06:40 -4,3 C -4,9 C 78 % 1030,2 hPa 0,0 mm 0,0 km/h (0 Bft) N-NW 337 -7,5 C 0,0 km/h (0 Bft)
11.12.2015 06:45 -4,5 C -5,0 C 78 % 1030,2 hPa 0,0 mm 0,0 km/h (0 Bft) N-NO 22 -7,7 C 0,0 km/h (0 Bft)
11.12.2015 06:50 -4,6 C -5,1 C 78 % 1030,2 hPa 0,0 mm 0,0 km/h (0 Bft) N-NO 22 -7,8 C 0,0 km/h (0 Bft)
11.12.2015 06:55 -4,6 C -5,1 C 78 % 1030,2 hPa 0,0 mm 0,0 km/h (0 Bft) S 180 -7,8 C 0,0 km/h (0 Bft)
11.12.2015 07:00 -4,8 C -5,3 C 78 % 1030,2 hPa 0,0 mm 0,0 km/h (0 Bft) S 180 -8,0 C 0,0 km/h (0 Bft)
11.12.2015 07:05 -4,5 C -5,1 C 79 % 1030,2 hPa 0,0 mm 0,0 km/h (0 Bft) S 180 -7,6 C 0,0 km/h (0 Bft)
11.12.2015 07:10 -4,5 C -5,1 C 79 % 1030,2 hPa 0,0 mm 0,0 km/h (0 Bft) S 180 -7,6 C 0,0 km/h (0 Bft)
11.12.2015 07:15 -3,8 C -4,5 C 77 % 1030,3 hPa 0,0 mm 0,3 km/h (0 Bft) S 180 -7,2 C 0,0 km/h (0 Bft)
11.12.2015 07:20 -3,6 C -3,9 C 77 % 1030,3 hPa 0,0 mm 2,1 km/h (1 Bft) S 180 -7,0 C 8,8 km/h (2 Bft)
11.12.2015 07:25 -2,9 C -3,6 C 78 % 1030,3 hPa 0,0 mm 2,3 km/h (1 Bft) SO 135 -6,2 C 3,4 km/h (1 Bft)
11.12.2015 07:30 -3,7 C -4,2 C 76 % 1030,3 hPa 0,0 mm 0,8 km/h (0 Bft) SO 135 -7,3 C 0,0 km/h (0 Bft)
11.12.2015 07:35 -3,0 C -3,7 C 76 % 1030,5 hPa 0,0 mm 0,0 km/h (0 Bft) SO 135 -6,6 C 0,0 km/h (0 Bft)
11.12.2015 07:40 -3,3 C -3,9 C 75 % 1030,5 hPa 0,0 mm 0,8 km/h (0 Bft) S-SO 157 -7,1 C 3,4 km/h (1 Bft)
11.12.2015 07:45 -2,6 C -3,1 C 75 % 1030,5 hPa 0,0 mm 2,3 km/h (1 Bft) SO 135 -6,4 C 4,9 km/h (1 Bft)
11.12.2015 07:50 -2,7 C -3,2 C 74 % 1030,5 hPa 0,0 mm 3,1 km/h (1 Bft) SO 135 -6,7 C 5,7 km/h (1 Bft)
11.12.2015 07:55 -2,5 C -3,1 C 73 % 1030,4 hPa 0,0 mm 2,8 km/h (1 Bft) O-SO 112 -6,7 C 0,0 km/h (0 Bft)
11.12.2015 08:00 -3,9 C -4,1 C 73 % 1030,4 hPa 0,0 mm 1,8 km/h (1 Bft) NO 45 -8,0 C 0,0 km/h (0 Bft)
11.12.2015 08:05 -4,1 C -4,3 C 73 % 1030,4 hPa 0,0 mm 0,3 km/h (0 Bft) O-NO 67 -8,2 C 0,0 km/h (0 Bft)
11.12.2015 08:10 -3,9 C -4,3 C 73 % 1030,4 hPa 0,0 mm 0,0 km/h (0 Bft) O-NO 67 -8,0 C 0,0 km/h (0 Bft)
11.12.2015 08:15 -4,1 C -4,5 C 73 % 1030,2 hPa 0,0 mm 0,3 km/h (0 Bft) O 90 -8,2 C 0,0 km/h (0 Bft)
11.12.2015 08:20 -4,3 C -4,6 C 73 % 1030,2 hPa 0,0 mm 0,5 km/h (0 Bft) N-NO 22 -8,4 C 0,0 km/h (0 Bft)
11.12.2015 08:25 -3,9 C -4,4 C 74 % 1030,2 hPa 0,0 mm 0,5 km/h (0 Bft) W-NW 292 -7,8 C 5,7 km/h (1 Bft)
11.12.2015 08:30 -4,0 C -4,4 C 74 % 1030,2 hPa 0,0 mm 0,5 km/h (0 Bft) N-NO 22 -7,9 C 0,0 km/h (0 Bft)
11.12.2015 08:35 -3,8 C -4,2 C 74 % 1030,0 hPa 0,0 mm 0,5 km/h (0 Bft) O-SO 112 -7,7 C 2,8 km/h (1 Bft)
11.12.2015 08:40 -3,9 C -4,3 C 74 % 1030,0 hPa 0,0 mm 0,0 km/h (0 Bft) O 90 -7,8 C 0,0 km/h (0 Bft)
11.12.2015 08:45 -3,9 C -4,3 C 74 % 1030,0 hPa 0,0 mm 0,0 km/h (0 Bft) O 90 -7,8 C 0,0 km/h (0 Bft)
11.12.2015 08:50 -3,9 C -4,2 C 74 % 1030,0 hPa 0,0 mm 0,0 km/h (0 Bft) O-NO 67 -7,8 C 0,0 km/h (0 Bft)
11.12.2015 08:55 -3,8 C -4,2 C 75 % 1029,8 hPa 0,0 mm 0,0 km/h (0 Bft) NO 45 -7,6 C 0,0 km/h (0 Bft)
11.12.2015 09:00 -3,4 C -3,9 C 75 % 1029,8 hPa 0,0 mm 0,0 km/h (0 Bft) O-NO 67 -7,2 C 0,0 km/h (0 Bft)
11.12.2015 09:05 -3,6 C -4,0 C 75 % 1029,8 hPa 0,0 mm 0,0 km/h (0 Bft) N-NO 22 -7,4 C 0,0 km/h (0 Bft)
11.12.2015 09:10 -3,5 C -3,8 C 75 % 1029,8 hPa 0,0 mm 0,0 km/h (0 Bft) O-NO 67 -7,3 C 0,0 km/h (0 Bft)
11.12.2015 09:15 -3,4 C -3,6 C 74 % 1029,8 hPa 0,0 mm 0,0 km/h (0 Bft) O-NO 67 -7,4 C 0,0 km/h (0 Bft)
11.12.2015 09:20 -3,4 C -3,6 C 75 % 1029,8 hPa 0,0 mm 0,0 km/h (0 Bft) O-NO 67 -7,2 C 0,0 km/h (0 Bft)
11.12.2015 09:25 -3,4 C -3,6 C 75 % 1029,8 hPa 0,0 mm 0,0 km/h (0 Bft) O-NO 67 -7,2 C 0,0 km/h (0 Bft)
11.12.2015 09:30 -3,1 C -3,4 C 75 % 1029,8 hPa 0,0 mm 0,3 km/h (0 Bft) SW 225 -6,9 C 0,0 km/h (0 Bft)
11.12.2015 09:35 -2,8 C -3,1 C 75 % 1030,8 hPa 0,0 mm 1,0 km/h (0 Bft) SW 225 -6,6 C 0,0 km/h (0 Bft)
11.12.2015 09:40 -2,5 C -2,8 C 75 % 1030,8 hPa 0,0 mm 1,3 km/h (1 Bft) S-SO 157 -6,3 C 0,0 km/h (0 Bft)
11.12.2015 09:45 -2,2 C -2,4 C 75 % 1030,8 hPa 0,0 mm 1,0 km/h (0 Bft) N-NO 22 -6,0 C 0,0 km/h (0 Bft)
11.12.2015 09:50 -2,2 C -2,3 C 74 % 1030,8 hPa 0,0 mm 0,5 km/h (0 Bft) O-NO 67 -6,2 C 0,0 km/h (0 Bft)
11.12.2015 09:55 -1,6 C -1,4 C 74 % 1030,3 hPa 0,0 mm 0,8 km/h (0 Bft) SW 225 -5,6 C 0,0 km/h (0 Bft)
11.12.2015 10:00 -1,4 C -1,2 C 74 % 1030,3 hPa 0,0 mm 1,8 km/h (1 Bft) S 180 -5,4 C 0,0 km/h (0 Bft)
11.12.2015 10:05 -0,6 C 0,0 C 74 % 1030,3 hPa 0,0 mm 2,3 km/h (1 Bft) S-SO 157 -4,6 C 3,9 km/h (1 Bft)
11.12.2015 10:10 0,4 C 0,5 C 73 % 1030,3 hPa 0,0 mm 2,3 km/h (1 Bft) N-NW 337 -3,9 C 0,0 km/h (0 Bft)
11.12.2015 10:15 0,2 C 0,5 C 72 % 1030,7 hPa 0,0 mm 1,8 km/h (1 Bft) NW 315 -4,2 C 0,0 km/h (0 Bft)
11.12.2015 10:20 0,8 C 1,2 C 72 % 1030,7 hPa 0,0 mm 1,3 km/h (1 Bft) S 180 -3,7 C 4,7 km/h (1 Bft)
11.12.2015 10:25 1,4 C 1,8 C 71 % 1030,7 hPa 0,0 mm 1,8 km/h (1 Bft) O-SO 112 -3,3 C 0,0 km/h (0 Bft)
11.12.2015 10:30 0,9 C 1,9 C 71 % 1030,7 hPa 0,0 mm 1,0 km/h (0 Bft) SW 225 -3,7 C 7,3 km/h (2 Bft)
11.12.2015 10:35 1,9 C 2,4 C 71 % 1030,4 hPa 0,0 mm 2,8 km/h (1 Bft) W-SW 247 -2,8 C 12,7 km/h (3 Bft)
11.12.2015 10:40 2,7 C 3,4 C 68 % 1030,4 hPa 0,0 mm 4,9 km/h (1 Bft) SW 225 -2,6 C 6,0 km/h (2 Bft)
11.12.2015 10:45 2,6 C 4,0 C 67 % 1030,4 hPa 0,0 mm 4,4 km/h (1 Bft) S 180 -2,9 C 0,0 km/h (0 Bft)
11.12.2015 10:50 3,8 C 4,6 C 65 % 1030,4 hPa 0,0 mm 4,9 km/h (1 Bft) SW 225 -2,2 C 7,8 km/h (2 Bft)
11.12.2015 10:55 4,1 C 5,1 C 63 % 1030,4 hPa 0,0 mm 4,9 km/h (1 Bft) W-SW 247 -2,3 C 5,7 km/h (1 Bft)
11.12.2015 11:00 3,7 C 5,5 C 63 % 1030,4 hPa 0,0 mm 2,8 km/h (1 Bft) W 270 -2,7 C 2,8 km/h (1 Bft)
11.12.2015 11:05 3,4 C 5,5 C 63 % 1030,4 hPa 0,0 mm 1,6 km/h (1 Bft) W 270 -3,0 C 0,0 km/h (0 Bft)
11.12.2015 11:10 3,7 C 5,3 C 64 % 1030,4 hPa 0,0 mm 0,0 km/h (0 Bft) S 180 -2,5 C 0,0 km/h (0 Bft)
11.12.2015 11:15 3,8 C 5,3 C 64 % 1030,2 hPa 0,0 mm 0,0 km/h (0 Bft) S 180 -2,4 C 0,0 km/h (0 Bft)
11.12.2015 11:20 3,5 C 5,3 C 65 % 1030,2 hPa 0,0 mm 0,0 km/h (0 Bft) S 180 -2,4 C 0,0 km/h (0 Bft)
11.12.2015 11:25 3,8 C 5,3 C 64 % 1030,2 hPa 0,0 mm 0,3 km/h (0 Bft) W 270 -2,4 C 5,7 km/h (1 Bft)
11.12.2015 11:30 4,3 C 5,6 C 63 % 1030,2 hPa 0,0 mm 3,1 km/h (1 Bft) W 270 -2,1 C 8,8 km/h (2 Bft)
11.12.2015 11:35 4,6 C 5,7 C 62 % 1030,2 hPa 0,0 mm 6,0 km/h (2 Bft) W-NW 292 -2,0 C 8,3 km/h (2 Bft)
11.12.2015 11:40 5,0 C 5,5 C 60 % 1030,2 hPa 0,0 mm 7,8 km/h (2 Bft) W-SW 247 -2,1 C 14,8 km/h (3 Bft)
11.12.2015 11:45 5,0 C 5,8 C 59 % 1030,2 hPa 0,0 mm 6,5 km/h (2 Bft) W 270 -2,3 C 3,9 km/h (1 Bft)
11.12.2015 11:50 5,2 C 6,2 C 59 % 1030,2 hPa 0,0 mm 5,7 km/h (1 Bft) W-SW 247 -2,1 C 8,8 km/h (2 Bft)
11.12.2015 11:55 5,3 C 6,1 C 59 % 1030,0 hPa 0,0 mm 6,2 km/h (2 Bft) SW 225 -2,0 C 11,9 km/h (2 Bft)
11.12.2015 12:00 5,2 C 6,4 C 59 % 1030,0 hPa 0,0 mm 5,7 km/h (1 Bft) W-NW 292 -2,1 C 8,8 km/h (2 Bft)
11.12.2015 12:05 5,4 C 6,4 C 59 % 1030,0 hPa 0,0 mm 5,4 km/h (1 Bft) SW 225 -2,0 C 5,4 km/h (1 Bft)
11.12.2015 12:10 5,7 C 6,5 C 58 % 1030,0 hPa 0,7 mm 5,7 km/h (1 Bft) W 270 -1,9 C 12,4 km/h (3 Bft)
11.12.2015 12:15 5,9 C 6,6 C 57 % 1029,9 hPa 0,0 mm 6,0 km/h (2 Bft) W 270 -2,0 C 7,3 km/h (2 Bft)
11.12.2015 12:16 6,2 C 7,1 C 57 % 1029,9 hPa 0,7 mm 6,2 km/h (2 Bft) W 270 -1,7 C 3,6 km/h (1 Bft)
11.12.2015 12:18 6,2 C 7,1 C 57 % 1029,9 hPa 0,0 mm 6,2 km/h (2 Bft) W 270 -1,7 C 3,6 km/h (1 Bft)
11.12.2015 12:20 6,2 C 7,1 C 57 % 1029,9 hPa 0,0 mm 6,2 km/h (2 Bft) W 270 -1,7 C 18,6 km/h (3 Bft)
11.12.2015 12:25 6,0 C 7,3 C 57 % 1029,9 hPa 0,0 mm 4,9 km/h (1 Bft) W-SW 247 -1,9 C 0,0 km/h (0 Bft)
11.12.2015 12:30 6,3 C 7,6 C 57 % 1029,9 hPa 0,0 mm 3,6 km/h (1 Bft) W 270 -1,6 C 6,7 km/h (2 Bft)
11.12.2015 12:35 6,4 C 7,6 C 56 % 1030,0 hPa 0,0 mm 5,2 km/h (1 Bft) W 270 -1,7 C 12,2 km/h (2 Bft)
11.12.2015 12:40 6,1 C 7,3 C 56 % 1030,0 hPa 0,0 mm 6,2 km/h (2 Bft) W 270 -2,0 C 19,7 km/h (3 Bft)
11.12.2015 12:45 6,1 C 7,3 C 56 % 1030,0 hPa 0,0 mm 4,9 km/h (1 Bft) W-SW 247 -2,0 C 2,6 km/h (1 Bft)
11.12.2015 12:50 6,2 C 7,3 C 56 % 1030,0 hPa 0,0 mm 3,4 km/h (1 Bft) S 180 -1,9 C 0,0 km/h (0 Bft)
11.12.2015 12:55 6,1 C 7,2 C 56 % 1029,7 hPa 0,0 mm 3,1 km/h (1 Bft) W-SW 247 -2,0 C 6,5 km/h (2 Bft)
11.12.2015 13:00 6,2 C 7,1 C 55 % 1029,7 hPa 0,0 mm 4,7 km/h (1 Bft) W-SW 247 -2,2 C 6,5 km/h (2 Bft)
11.12.2015 13:05 6,2 C 7,0 C 55 % 1029,7 hPa 0,0 mm 5,4 km/h (1 Bft) W-SW 247 -2,2 C 3,6 km/h (1 Bft)
11.12.2015 13:10 6,2 C 7,0 C 55 % 1029,7 hPa 0,0 mm 3,6 km/h (1 Bft) W 270 -2,2 C 4,9 km/h (1 Bft)
11.12.2015 13:15 6,3 C 7,1 C 55 % 1029,5 hPa 0,0 mm 2,8 km/h (1 Bft) NW 315 -2,1 C 7,0 km/h (2 Bft)
11.12.2015 13:20 6,6 C 7,4 C 55 % 1029,5 hPa 0,0 mm 4,7 km/h (1 Bft) SW 225 -1,8 C 8,3 km/h (2 Bft)
11.12.2015 13:25 6,8 C 7,6 C 54 % 1029,5 hPa 0,0 mm 5,4 km/h (1 Bft) SW 225 -1,8 C 7,0 km/h (2 Bft)
11.12.2015 13:30 6,9 C 7,8 C 53 % 1029,5 hPa 0,0 mm 6,2 km/h (2 Bft) W 270 -2,0 C 10,6 km/h (2 Bft)
11.12.2015 13:35 7,0 C 8,1 C 53 % 1029,4 hPa 0,0 mm 6,0 km/h (2 Bft) W-SW 247 -1,9 C 10,1 km/h (2 Bft)
11.12.2015 13:40 7,3 C 8,3 C 52 % 1029,4 hPa 0,0 mm 6,7 km/h (2 Bft) W 270 -1,9 C 15,0 km/h (3 Bft)
11.12.2015 13:45 7,4 C 8,5 C 52 % 1029,4 hPa 0,0 mm 8,0 km/h (2 Bft) W-SW 247 -1,8 C 8,8 km/h (2 Bft)
11.12.2015 13:50 7,4 C 9,1 C 52 % 1029,4 hPa 0,0 mm 7,3 km/h (2 Bft) SO 135 -1,8 C 5,7 km/h (1 Bft)
11.12.2015 13:55 7,5 C 9,6 C 52 % 1029,2 hPa 0,0 mm 6,5 km/h (2 Bft) W 270 -1,7 C 6,2 km/h (2 Bft)
11.12.2015 14:00 7,3 C 9,9 C 52 % 1029,2 hPa 0,0 mm 5,2 km/h (1 Bft) W 270 -1,9 C 6,7 km/h (2 Bft)
11.12.2015 14:05 7,0 C 9,6 C 52 % 1029,2 hPa 0,0 mm 4,1 km/h (1 Bft) W 270 -2,2 C 2,8 km/h (1 Bft)
11.12.2015 14:10 6,8 C 9,1 C 52 % 1029,2 hPa 0,0 mm 3,4 km/h (1 Bft) W-SW 247 -2,4 C 4,1 km/h (1 Bft)
11.12.2015 14:15 6,8 C 8,8 C 52 % 1029,2 hPa 0,0 mm 3,6 km/h (1 Bft) W-SW 247 -2,4 C 6,0 km/h (2 Bft)
11.12.2015 14:20 6,9 C 8,5 C 51 % 1029,2 hPa 0,0 mm 3,9 km/h (1 Bft) W-NW 292 -2,5 C 3,4 km/h (1 Bft)
11.12.2015 14:25 6,6 C 8,6 C 52 % 1029,2 hPa 0,0 mm 2,3 km/h (1 Bft) W-NW 292 -2,5 C 0,0 km/h (0 Bft)
11.12.2015 14:30 6,6 C 8,5 C 52 % 1029,2 hPa 0,0 mm 2,3 km/h (1 Bft) W-NW 292 -2,5 C 9,8 km/h (2 Bft)
11.12.2015 14:35 6,5 C 8,3 C 52 % 1029,1 hPa 0,0 mm 3,6 km/h (1 Bft) N-NO 22 -2,6 C 6,5 km/h (2 Bft)
11.12.2015 14:40 6,4 C 8,5 C 53 % 1029,1 hPa 0,0 mm 3,9 km/h (1 Bft) W 270 -2,5 C 3,6 km/h (1 Bft)
11.12.2015 14:45 6,4 C 8,7 C 53 % 1029,1 hPa 0,0 mm 3,4 km/h (1 Bft) NW 315 -2,5 C 3,6 km/h (1 Bft)
11.12.2015 14:50 6,6 C 8,5 C 53 % 1029,1 hPa 0,0 mm 4,4 km/h (1 Bft) W 270 -2,3 C 9,3 km/h (2 Bft)
11.12.2015 14:55 6,6 C 8,5 C 54 % 1029,1 hPa 0,0 mm 5,7 km/h (1 Bft) W-SW 247 -2,0 C 7,3 km/h (2 Bft)
11.12.2015 15:00 6,5 C 8,2 C 54 % 1029,1 hPa 0,0 mm 6,5 km/h (2 Bft) W 270 -2,1 C 9,3 km/h (2 Bft)
11.12.2015 15:05 6,5 C 7,8 C 54 % 1029,1 hPa 0,0 mm 6,5 km/h (2 Bft) W-SW 247 -2,1 C 6,7 km/h (2 Bft)
11.12.2015 15:10 6,3 C 7,3 C 54 % 1029,1 hPa 0,0 mm 6,5 km/h (2 Bft) W 270 -2,3 C 9,1 km/h (2 Bft)
11.12.2015 15:15 6,3 C 7,2 C 54 % 1028,8 hPa 0,0 mm 6,0 km/h (2 Bft) W 270 -2,3 C 5,4 km/h (1 Bft)
11.12.2015 15:20 6,3 C 7,0 C 53 % 1028,8 hPa 0,0 mm 4,9 km/h (1 Bft) S 180 -2,6 C 3,6 km/h (1 Bft)
11.12.2015 15:25 6,4 C 6,8 C 53 % 1028,8 hPa 0,0 mm 4,7 km/h (1 Bft) S 180 -2,5 C 8,8 km/h (2 Bft)
11.12.2015 15:30 6,2 C 6,8 C 53 % 1028,8 hPa 0,0 mm 4,9 km/h (1 Bft) NW 315 -2,7 C 4,9 km/h (1 Bft)
11.12.2015 15:35 6,3 C 6,4 C 52 % 1028,8 hPa 0,0 mm 6,0 km/h (2 Bft) W-SW 247 -2,8 C 7,3 km/h (2 Bft)
11.12.2015 15:40 6,2 C 6,2 C 52 % 1028,8 hPa 0,0 mm 6,2 km/h (2 Bft) W-SW 247 -2,9 C 6,0 km/h (2 Bft)
11.12.2015 15:45 6,2 C 6,1 C 52 % 1028,8 hPa 0,0 mm 6,2 km/h (2 Bft) SW 225 -2,9 C 9,3 km/h (2 Bft)
11.12.2015 15:50 6,1 C 6,1 C 51 % 1028,8 hPa 0,0 mm 4,4 km/h (1 Bft) SW 225 -3,3 C 3,6 km/h (1 Bft)
11.12.2015 15:55 6,0 C 6,0 C 51 % 1028,6 hPa 0,0 mm 3,6 km/h (1 Bft) S 180 -3,4 C 0,0 km/h (0 Bft)
11.12.2015 16:00 6,1 C 6,0 C 51 % 1028,6 hPa 0,0 mm 3,9 km/h (1 Bft) S-SW 202 -3,3 C 4,9 km/h (1 Bft)
11.12.2015 16:05 5,8 C 5,7 C 51 % 1028,6 hPa 0,0 mm 3,6 km/h (1 Bft) S 180 -3,5 C 0,0 km/h (0 Bft)
11.12.2015 16:10 5,7 C 5,6 C 52 % 1028,6 hPa 0,0 mm 2,8 km/h (1 Bft) SW 225 -3,4 C 2,8 km/h (1 Bft)
11.12.2015 16:15 5,6 C 5,5 C 54 % 1028,5 hPa 0,0 mm 2,1 km/h (1 Bft) S 180 -3,0 C 0,0 km/h (0 Bft)
11.12.2015 16:20 5,0 C 4,9 C 55 % 1028,5 hPa 0,0 mm 0,5 km/h (0 Bft) S 180 -3,3 C 0,0 km/h (0 Bft)
11.12.2015 16:25 4,4 C 4,5 C 56 % 1028,5 hPa 0,0 mm 0,8 km/h (0 Bft) S-SO 157 -3,6 C 4,4 km/h (1 Bft)
11.12.2015 16:30 4,4 C 4,4 C 57 % 1028,5 hPa 0,0 mm 1,3 km/h (1 Bft) S 180 -3,4 C 2,8 km/h (1 Bft)
11.12.2015 16:35 3,7 C 3,8 C 57 % 1028,2 hPa 0,0 mm 0,8 km/h (0 Bft) S-SO 157 -4,0 C 0,0 km/h (0 Bft)
11.12.2015 16:40 3,2 C 3,1 C 58 % 1028,2 hPa 0,0 mm 0,3 km/h (0 Bft) S-SW 202 -4,3 C 0,0 km/h (0 Bft)
11.12.2015 16:45 3,3 C 3,2 C 59 % 1028,2 hPa 0,0 mm 0,3 km/h (0 Bft) S 180 -3,9 C 0,0 km/h (0 Bft)
11.12.2015 16:50 3,1 C 2,9 C 59 % 1028,2 hPa 0,0 mm 0,8 km/h (0 Bft) N-NW 337 -4,1 C 0,0 km/h (0 Bft)
11.12.2015 16:55 2,9 C 2,8 C 62 % 1028,6 hPa 0,0 mm 0,5 km/h (0 Bft) NW 315 -3,6 C 0,0 km/h (0 Bft)
11.12.2015 17:00 2,1 C 2,0 C 62 % 1028,6 hPa 0,0 mm 0,3 km/h (0 Bft) NW 315 -4,4 C 0,0 km/h (0 Bft)
11.12.2015 17:05 2,5 C 2,3 C 63 % 1028,6 hPa 0,0 mm 0,5 km/h (0 Bft) S 180 -3,8 C 2,8 km/h (1 Bft)
11.12.2015 17:10 3,0 C 2,7 C 62 % 1028,6 hPa 0,0 mm 0,0 km/h (0 Bft) S 180 -3,6 C 0,0 km/h (0 Bft)
11.12.2015 17:15 3,1 C 2,9 C 62 % 1028,9 hPa 0,0 mm 1,0 km/h (0 Bft) S-SW 202 -3,5 C 6,2 km/h (2 Bft)
11.12.2015 17:20 3,6 C 3,2 C 61 % 1028,9 hPa 0,0 mm 3,1 km/h (1 Bft) S 180 -3,2 C 4,9 km/h (1 Bft)
11.12.2015 17:25 3,6 C 3,2 C 60 % 1028,9 hPa 0,0 mm 5,2 km/h (1 Bft) S-SW 202 -3,4 C 6,2 km/h (2 Bft)
11.12.2015 17:30 3,0 C 2,9 C 60 % 1028,9 hPa 0,0 mm 3,4 km/h (1 Bft) W-SW 247 -4,0 C 0,0 km/h (0 Bft)
11.12.2015 17:35 2,0 C 2,3 C 60 % 1028,8 hPa 0,0 mm 1,6 km/h (1 Bft) W 270 -4,9 C 0,0 km/h (0 Bft)
11.12.2015 17:40 2,1 C 1,9 C 63 % 1028,8 hPa 0,0 mm 0,0 km/h (0 Bft) W-SW 247 -4,2 C 0,0 km/h (0 Bft)
11.12.2015 17:45 1,6 C 1,5 C 63 % 1028,8 hPa 0,0 mm 0,0 km/h (0 Bft) W-NW 292 -4,7 C 0,0 km/h (0 Bft)
11.12.2015 17:50 1,1 C 1,0 C 64 % 1028,8 hPa 0,0 mm 0,0 km/h (0 Bft) W-NW 292 -4,9 C 0,0 km/h (0 Bft)
11.12.2015 17:55 0,9 C 0,8 C 65 % 1029,1 hPa 0,0 mm 0,0 km/h (0 Bft) W-NW 292 -4,9 C 0,0 km/h (0 Bft)
11.12.2015 18:00 0,9 C 0,6 C 68 % 1029,1 hPa 0,0 mm 0,3 km/h (0 Bft) W 270 -4,3 C 8,3 km/h (2 Bft)
11.12.2015 18:05 1,8 C 1,4 C 67 % 1029,1 hPa 0,0 mm 1,6 km/h (1 Bft) W-SW 247 -3,7 C 13,5 km/h (3 Bft)
11.12.2015 18:10 2,3 C 1,9 C 68 % 1029,1 hPa 0,0 mm 4,1 km/h (1 Bft) W 270 -3,0 C 3,6 km/h (1 Bft)
11.12.2015 18:15 2,3 C 1,9 C 68 % 1029,1 hPa 0,0 mm 4,4 km/h (1 Bft) W-SW 247 -3,0 C 10,4 km/h (2 Bft)
11.12.2015 18:19 2,7 C 2,2 C 69 % 1029,1 hPa 0,0 mm 5,7 km/h (1 Bft) SW 225 -2,4 C 11,7 km/h (2 Bft)
11.12.2015 18:20 2,7 C 2,2 C 69 % 1029,1 hPa 0,0 mm 5,7 km/h (1 Bft) SW 225 -2,4 C 11,7 km/h (2 Bft)
11.12.2015 18:25 2,7 C 2,1 C 69 % 1029,1 hPa 0,0 mm 6,7 km/h (2 Bft) SW 225 -2,4 C 5,7 km/h (1 Bft)
11.12.2015 18:30 2,7 C 2,0 C 69 % 1029,1 hPa 0,0 mm 7,5 km/h (2 Bft) S-SW 202 -2,4 C 16,8 km/h (3 Bft)
11.12.2015 18:35 2,9 C 2,1 C 69 % 1029,1 hPa 0,0 mm 8,5 km/h (2 Bft) W-SW 247 -2,2 C 23,6 km/h (4 Bft)
11.12.2015 18:40 2,8 C 2,1 C 69 % 1029,1 hPa 0,0 mm 8,5 km/h (2 Bft) SW 225 -2,3 C 9,6 km/h (2 Bft)
11.12.2015 18:45 2,7 C 2,1 C 69 % 1029,1 hPa 0,0 mm 7,8 km/h (2 Bft) W-SW 247 -2,4 C 7,3 km/h (2 Bft)
11.12.2015 18:50 2,7 C 2,3 C 69 % 1029,1 hPa 0,0 mm 5,4 km/h (1 Bft) SW 225 -2,4 C 7,0 km/h (2 Bft)
11.12.2015 18:55 2,7 C 2,3 C 69 % 1029,1 hPa 0,0 mm 5,2 km/h (1 Bft) SW 225 -2,4 C 7,8 km/h (2 Bft)
11.12.2015 19:00 2,8 C 2,4 C 69 % 1029,1 hPa 0,0 mm 5,4 km/h (1 Bft) S-SW 202 -2,3 C 6,2 km/h (2 Bft)
11.12.2015 19:05 2,7 C 2,2 C 70 % 1029,1 hPa 0,0 mm 6,0 km/h (2 Bft) W 270 -2,2 C 7,8 km/h (2 Bft)
11.12.2015 19:10 2,6 C 2,3 C 71 % 1029,1 hPa 0,0 mm 5,2 km/h (1 Bft) S 180 -2,1 C 4,9 km/h (1 Bft)
11.12.2015 19:15 2,4 C 2,2 C 71 % 1029,2 hPa 0,0 mm 4,1 km/h (1 Bft) W 270 -2,3 C 0,0 km/h (0 Bft)
11.12.2015 19:20 2,4 C 2,1 C 72 % 1029,2 hPa 0,0 mm 3,4 km/h (1 Bft) SW 225 -2,1 C 5,7 km/h (1 Bft)
11.12.2015 19:25 2,6 C 2,1 C 73 % 1029,2 hPa 0,0 mm 5,7 km/h (1 Bft) SW 225 -1,7 C 12,2 km/h (2 Bft)
11.12.2015 19:30 2,3 C 1,7 C 73 % 1029,2 hPa 0,0 mm 7,0 km/h (2 Bft) SW 225 -2,0 C 5,4 km/h (1 Bft)
11.12.2015 19:35 2,2 C 1,8 C 73 % 1029,3 hPa 0,0 mm 5,7 km/h (1 Bft) W-SW 247 -2,1 C 15,3 km/h (3 Bft)
11.12.2015 19:40 2,4 C 1,7 C 73 % 1029,3 hPa 0,0 mm 6,5 km/h (2 Bft) SW 225 -1,9 C 12,2 km/h (2 Bft)
11.12.2015 19:45 2,5 C 1,8 C 74 % 1029,3 hPa 0,0 mm 7,8 km/h (2 Bft) W-SW 247 -1,7 C 9,3 km/h (2 Bft)
11.12.2015 19:50 2,7 C 1,9 C 74 % 1029,3 hPa 0,0 mm 8,8 km/h (2 Bft) SW 225 -1,5 C 16,3 km/h (3 Bft)
11.12.2015 19:55 2,7 C 1,9 C 75 % 1029,3 hPa 0,0 mm 9,6 km/h (2 Bft) S 180 -1,3 C 19,2 km/h (3 Bft)
11.12.2015 20:00 2,7 C 1,8 C 75 % 1029,3 hPa 0,0 mm 11,4 km/h (2 Bft) SW 225 -1,3 C 22,8 km/h (4 Bft)
11.12.2015 20:05 2,7 C 1,8 C 75 % 1029,3 hPa 0,0 mm 10,6 km/h (2 Bft) W-SW 247 -1,3 C 7,3 km/h (2 Bft)
11.12.2015 20:10 2,6 C 1,9 C 75 % 1029,3 hPa 0,0 mm 8,8 km/h (2 Bft) SW 225 -1,4 C 8,3 km/h (2 Bft)
11.12.2015 20:15 2,5 C 1,9 C 75 % 1029,5 hPa 0,0 mm 7,8 km/h (2 Bft) SW 225 -1,5 C 10,9 km/h (2 Bft)
11.12.2015 20:20 2,7 C 2,0 C 76 % 1029,5 hPa 0,0 mm 8,0 km/h (2 Bft) SW 225 -1,1 C 8,3 km/h (2 Bft)
11.12.2015 20:25 2,7 C 1,9 C 76 % 1029,5 hPa 0,0 mm 9,1 km/h (2 Bft) S-SW 202 -1,1 C 16,1 km/h (3 Bft)
11.12.2015 20:30 2,8 C 2,0 C 76 % 1029,5 hPa 0,0 mm 9,6 km/h (2 Bft) W-SW 247 -1,0 C 15,0 km/h (3 Bft)
11.12.2015 20:35 2,8 C 2,0 C 76 % 1029,6 hPa 0,0 mm 9,3 km/h (2 Bft) W-SW 247 -1,0 C 13,7 km/h (3 Bft)
11.12.2015 20:40 2,8 C 2,0 C 76 % 1029,6 hPa 0,0 mm 10,1 km/h (2 Bft) SW 225 -1,0 C 8,3 km/h (2 Bft)
11.12.2015 20:45 2,9 C 2,0 C 76 % 1029,6 hPa 0,0 mm 10,9 km/h (2 Bft) S 180 -0,9 C 15,8 km/h (3 Bft)
11.12.2015 20:50 2,9 C 2,0 C 76 % 1029,6 hPa 0,0 mm 11,7 km/h (2 Bft) W-SW 247 -0,9 C 29,5 km/h (5 Bft)
11.12.2015 20:55 2,9 C 2,0 C 76 % 1029,2 hPa 0,0 mm 10,9 km/h (2 Bft) W-SW 247 -0,9 C 4,9 km/h (1 Bft)
11.12.2015 21:00 2,8 C 2,1 C 76 % 1029,2 hPa 0,0 mm 9,1 km/h (2 Bft) SW 225 -1,0 C 8,5 km/h (2 Bft)
11.12.2015 21:05 2,9 C 2,0 C 75 % 1029,2 hPa 0,0 mm 10,4 km/h (2 Bft) S-SW 202 -1,1 C 16,6 km/h (3 Bft)
11.12.2015 21:10 2,8 C 1,9 C 75 % 1029,2 hPa 0,0 mm 11,1 km/h (2 Bft) SW 225 -1,2 C 14,5 km/h (3 Bft)
11.12.2015 21:15 2,8 C 2,0 C 74 % 1029,0 hPa 0,0 mm 10,4 km/h (2 Bft) W-SW 247 -1,4 C 14,8 km/h (3 Bft)
11.12.2015 21:20 2,8 C 2,0 C 74 % 1029,0 hPa 0,0 mm 9,8 km/h (2 Bft) SW 225 -1,4 C 13,7 km/h (3 Bft)
11.12.2015 21:25 2,8 C 2,1 C 74 % 1029,0 hPa 0,0 mm 8,8 km/h (2 Bft) SW 225 -1,4 C 15,0 km/h (3 Bft)
11.12.2015 21:30 2,7 C 2,1 C 73 % 1029,0 hPa 0,0 mm 7,3 km/h (2 Bft) SW 225 -1,6 C 12,2 km/h (2 Bft)
11.12.2015 21:35 2,7 C 2,1 C 73 % 1029,0 hPa 0,0 mm 7,3 km/h (2 Bft) SW 225 -1,6 C 9,6 km/h (2 Bft)
11.12.2015 21:40 2,8 C 2,2 C 73 % 1029,0 hPa 0,0 mm 7,3 km/h (2 Bft) SW 225 -1,5 C 4,4 km/h (1 Bft)
11.12.2015 21:45 2,8 C 2,2 C 72 % 1029,0 hPa 0,0 mm 7,3 km/h (2 Bft) W-SW 247 -1,7 C 13,5 km/h (3 Bft)
11.12.2015 21:50 2,6 C 2,1 C 72 % 1029,0 hPa 0,0 mm 7,0 km/h (2 Bft) W-SW 247 -1,9 C 11,1 km/h (2 Bft)
11.12.2015 21:55 2,7 C 2,2 C 72 % 1028,8 hPa 0,0 mm 7,0 km/h (2 Bft) W 270 -1,8 C 5,7 km/h (1 Bft)
11.12.2015 22:00 2,4 C 2,2 C 71 % 1028,8 hPa 0,0 mm 4,4 km/h (1 Bft) W-SW 247 -2,3 C 8,5 km/h (2 Bft)
11.12.2015 22:05 2,4 C 2,2 C 71 % 1028,8 hPa 0,0 mm 2,1 km/h (1 Bft) S-SO 157 -2,3 C 0,0 km/h (0 Bft)
11.12.2015 22:10 2,3 C 2,0 C 71 % 1028,8 hPa 0,0 mm 1,6 km/h (1 Bft) S-SW 202 -2,4 C 0,0 km/h (0 Bft)
11.12.2015 22:15 2,3 C 2,0 C 71 % 1028,8 hPa 0,0 mm 1,6 km/h (1 Bft) S 180 -2,4 C 6,0 km/h (2 Bft)
11.12.2015 22:20 2,2 C 1,9 C 71 % 1028,8 hPa 0,0 mm 2,8 km/h (1 Bft) S 180 -2,5 C 4,7 km/h (1 Bft)
11.12.2015 22:25 2,3 C 2,0 C 71 % 1028,8 hPa 0,0 mm 3,6 km/h (1 Bft) O-SO 112 -2,4 C 4,9 km/h (1 Bft)
11.12.2015 22:30 2,3 C 2,0 C 69 % 1028,8 hPa 0,0 mm 3,6 km/h (1 Bft) SO 135 -2,8 C 4,4 km/h (1 Bft)
11.12.2015 22:35 2,2 C 1,9 C 69 % 1029,0 hPa 0,0 mm 3,6 km/h (1 Bft) SW 225 -2,9 C 4,4 km/h (1 Bft)
11.12.2015 22:40 2,4 C 1,9 C 70 % 1029,0 hPa 0,0 mm 4,9 km/h (1 Bft) SW 225 -2,5 C 8,0 km/h (2 Bft)
11.12.2015 22:45 2,2 C 1,9 C 69 % 1029,0 hPa 0,0 mm 4,7 km/h (1 Bft) W-SW 247 -2,9 C 4,4 km/h (1 Bft)
11.12.2015 22:50 2,2 C 1,9 C 70 % 1029,0 hPa 0,0 mm 4,4 km/h (1 Bft) S 180 -2,7 C 2,6 km/h (1 Bft)
11.12.2015 22:55 2,3 C 1,8 C 69 % 1028,8 hPa 0,0 mm 5,7 km/h (1 Bft) SW 225 -2,8 C 16,1 km/h (3 Bft)
11.12.2015 23:00 2,3 C 1,7 C 69 % 1028,8 hPa 0,0 mm 7,0 km/h (2 Bft) W 270 -2,8 C 8,3 km/h (2 Bft)
11.12.2015 23:05 2,3 C 1,7 C 69 % 1028,8 hPa 0,0 mm 7,0 km/h (2 Bft) S 180 -2,8 C 11,4 km/h (2 Bft)
11.12.2015 23:10 2,8 C 1,9 C 68 % 1028,8 hPa 0,0 mm 9,6 km/h (2 Bft) SW 225 -2,5 C 38,1 km/h (5 Bft)
11.12.2015 23:15 2,9 C 2,0 C 68 % 1028,7 hPa 0,0 mm 10,6 km/h (2 Bft) W 270 -2,4 C 10,6 km/h (2 Bft)
11.12.2015 23:20 2,8 C 2,1 C 67 % 1028,7 hPa 0,0 mm 8,5 km/h (2 Bft) N-NW 337 -2,7 C 6,2 km/h (2 Bft)
11.12.2015 23:25 2,8 C 2,1 C 67 % 1028,7 hPa 0,0 mm 8,0 km/h (2 Bft) W-SW 247 -2,7 C 11,7 km/h (2 Bft)
11.12.2015 23:30 3,2 C 2,4 C 66 % 1028,7 hPa 0,0 mm 8,8 km/h (2 Bft) NW 315 -2,5 C 8,5 km/h (2 Bft)
11.12.2015 23:35 3,1 C 2,4 C 66 % 1028,5 hPa 0,0 mm 8,8 km/h (2 Bft) W 270 -2,6 C 14,0 km/h (3 Bft)
11.12.2015 23:40 3,2 C 2,5 C 66 % 1028,5 hPa 0,0 mm 8,0 km/h (2 Bft) S 180 -2,5 C 17,3 km/h (3 Bft)
11.12.2015 23:45 3,3 C 2,6 C 66 % 1028,5 hPa 0,0 mm 8,5 km/h (2 Bft) S 180 -2,4 C 12,2 km/h (2 Bft)
11.12.2015 23:50 3,5 C 2,7 C 66 % 1028,5 hPa 0,0 mm 9,8 km/h (2 Bft) W-SW 247 -2,2 C 15,5 km/h (3 Bft)
11.12.2015 23:55 3,6 C 2,8 C 66 % 1028,6 hPa 0,0 mm 9,3 km/h (2 Bft) NW 315 -2,1 C 10,1 km/h (2 Bft)
_ Min-Zeit 01:10 01:10 16:05 16:50 - 17:55 - - 08:20 22:10
Minimum _ -5,4 C -5,8 C 51 % 1028,2 hPa - 0,0 km/h (0 Bft) - - -8,4 C 0,0 km/h (0 Bft)
_ Max-Zeit 13:55 14:00 01:50 00:10 12:16 20:50 - - 20:55 23:10
Maximum _ 7,5 C 9,9 C 86 % 1031,5 hPa 0,7 mm 11,7 km/h
W-SW (2 Bft)
- - -0,9 C 38,1 km/h
SW (5 Bft)
Durchschnitt _ 0,5 C 0,4 C 71 % 1029,8 hPa #1,4 mm 3,1 km/h (1 Bft) SW - -4,4 C 4,5 km/h (1 Bft)